This is the latest recevied weather packets stored in our database for station/object EA1FBN. If no packets are shown the sender has not sent any weather packets the latest 10 day(s).
| Time | Temp. | Humidity | Pressure | Rain* | Wind** | Luminosity | Snow |
|---|---|---|---|---|---|---|---|
| 1787535940 | 18.33° C | 48% | 1010.2 hPa | 0 mm | - | - | - |
| 1787535640 | 18.33° C | 49% | 1010.3 hPa | 0 mm | - | - | - |
| 1787535039 | 18.33° C | 47% | 1010.3 hPa | 0 mm | - | - | - |
| 1787534739 | 18.33° C | 46% | 1010.3 hPa | 0 mm | - | - | - |
| 1787534140 | 18.33° C | 48% | 1010.4 hPa | 0 mm | - | - | - |
| 1787533840 | 18.89° C | 48% | 1010.4 hPa | 0 mm | - | - | - |
| 1787533240 | 18.89° C | 45% | 1010.5 hPa | 0 mm | - | - | - |
| 1787532940 | 18.89° C | 44% | 1010.5 hPa | 0 mm | - | - | - |
| 1787532340 | 18.89° C | 45% | 1010.6 hPa | 0 mm | - | - | - |
| 1787532040 | 18.33° C | 45% | 1010.6 hPa | 0 mm | - | - | - |
| 1787531440 | 18.33° C | 47% | 1010.6 hPa | 0 mm | - | - | - |
| 1787531140 | 18.89° C | 49% | 1010.6 hPa | 0 mm | - | - | - |
| 1787530540 | 19.44° C | 43% | 1010.7 hPa | 0 mm | - | - | - |
| 1787530240 | 19.44° C | 44% | 1010.8 hPa | 0 mm | - | - | - |
| 1787529640 | 20° C | 43% | 1010.9 hPa | 0 mm | - | - | - |
| 1787529340 | 20° C | 42% | 1010.9 hPa | 0 mm | - | - | - |
| 1787528740 | 20.56° C | 42% | 1010.9 hPa | 0 mm | - | - | - |
| 1787528440 | 20° C | 43% | 1010.9 hPa | 0 mm | - | - | - |
| 1787527840 | 20° C | 46% | 1010.8 hPa | 0 mm | - | - | - |
| 1787527540 | 20° C | 43% | 1010.9 hPa | 0 mm | - | - | - |
| 1787526940 | 20° C | 45% | 1010.9 hPa | 0 mm | - | - | - |
| 1787526640 | 20.56° C | 44% | 1010.9 hPa | 0 mm | - | - | - |
| 1787526040 | 20° C | 44% | 1010.9 hPa | 0 mm | - | - | - |
| 1787525740 | 20° C | 45% | 1010.9 hPa | 0 mm | - | - | - |
| 1787525140 | 20° C | 44% | 1010.9 hPa | 0.25 mm | - | - | - |
* Rain latest hour (hover to see other rain measurements)
** Current wind speed in m/s (hover to see current wind gust speed)